Location: Sabalos
(43.2860°N, 0.1414°E)
Time: 21:04:08
(UTC+00:00)

COSMOS 2428 - Pass Details

Date: 05 July 2020
Orbit: 844 x 859 km, 70.9° (Epoch: 14 August)

Event Time Altitude Azimuth Distance (km) Brightness Sun altitude
Exits shadow 20:15:33 - 143° (SE) 2,824 4.8 -5.7°
Reaches altitude 10° 20:17:05 10° 132° (SE) 2,459 4.4 -5.9°
Maximum altitude 20:20:12 15° 98° (E) 2,113 4.3 -6.4°
Drops below altitude 10° 20:23:20 10° 64° (ENE) 2,469 4.9 -6.8°
Sets 20:26:48 0° 43° (NE) 3,412 5.8 -7.3°
